DW5010 Weather Reports


Display with metric or nautical units.
time (UTC)temp
F
wind
direction
speed
MPH
gust
MPH
rain 1hr
in
rain 24hr
in
rain mn
in
humidity
%
barometer
mb
20260510172515 60 304 5.0 12.0 0.00 0.00 0.00 37 1018.1
20260510172015 60 238 4.0 13.0 0.00 0.00 0.00 37 1018.0
20260510171532 61 230 4.0 13.0 0.00 0.00 0.00 36 1018.1
20260510171012 60 263 3.0 15.0 0.00 0.00 0.00 35 1018.2
20260510170516 60 189 6.0 15.0 0.00 0.00 0.00 39 1018.2
20260510170030 61 287 4.0 12.0 0.00 0.00 0.00 36 1018.2
20260510165515 61 232 6.0 12.0 0.00 0.00 0.00 34 1018.2
20260510165016 61 267 5.0 16.0 0.00 0.00 0.00 37 1018.2
20260510164533 61 5 6.0 16.0 0.00 0.00 0.00 39 1018.1
20260510164015 60 311 5.0 14.0 0.00 0.00 0.00 39 1018.1
20260510163515 60 291 4.0 14.0 0.00 0.00 0.00 38 1018.1
20260510163031 60 292 5.0 13.0 0.00 0.00 0.00 39 1018.0
20260510162515 59 300 6.0 13.0 0.00 0.00 0.00 37 1018.1
20260510162012 59 232 4.0 11.0 0.00 0.00 0.00 41 1018.1
20260510161533 59 312 3.0 14.0 0.00 0.00 0.00 41 1018.2
20260510161018 59 258 4.0 14.0 0.00 0.00 0.00 45 1018.1
20260510160513 59 305 5.0 14.0 0.00 0.00 0.00 38 1018.2
20260510160035 58 221 4.0 12.0 0.00 0.00 0.00 39 1018.1
20260510155515 58 319 5.0 14.0 0.00 0.00 0.00 36 1018.0
20260510155015 58 261 6.0 14.0 0.00 0.00 0.00 37 1018.1
20260510154532 58 213 4.0 14.0 0.00 0.00 0.00 40 1017.9
20260510154014 57 256 7.0 14.0 0.00 0.00 0.00 37 1018.1
20260510153515 58 248 4.0 11.0 0.00 0.00 0.00 41 1018.0
20260510153033 58 205 5.0 10.0 0.00 0.00 0.00 36 1017.9
20260510152513 58 236 1.0 9.0 0.00 0.00 0.00 46 1018.1
20260510152012 57 267 2.0 10.0 0.00 0.00 0.00 41 1018.1
20260510151531 57 0 4.0 10.0 0.00 0.00 0.00 38 1018.0
20260510151014 57 228 4.0 10.0 0.00 0.00 0.00 38 1018.0
20260510150514 57 225 4.0 8.0 0.00 0.00 0.00 39 1018.0
20260510150030 56 244 1.0 11.0 0.00 0.00 0.00 37 1018.0
20260510145517 56 229 4.0 11.0 0.00 0.00 0.00 40 1018.1
20260510145015 56 251 3.0 11.0 0.00 0.00 0.00 40 1018.1
20260510144534 56 255 2.0 8.0 0.00 0.00 0.00 41 1018.1
20260510144015 56 329 3.0 8.0 0.00 0.00 0.00 43 1018.0
20260510143516 56 285 4.0 8.0 0.00 0.00 0.00 40 1018.0
20260510143030 56 286 1.0 7.0 0.00 0.00 0.00 42 1018.0
20260510142515 55 158 2.0 8.0 0.00 0.00 0.00 41 1018.0
20260510142015 55 179 1.0 8.0 0.00 0.00 0.00 42 1017.9
20260510141535 55 210 2.0 7.0 0.00 0.00 0.00 41 1017.8
20260510141017 55 259 3.0 6.0 0.00 0.00 0.00 40 1017.8
20260510140519 54 219 2.0 7.0 0.00 0.00 0.00 40 1017.7
20260510140030 54 154 2.0 7.0 0.00 0.00 0.00 42 1017.8
20260510135511 54 267 1.0 7.0 0.00 0.00 0.00 44 1017.8
20260510135013 54 191 4.0 7.0 0.00 0.00 0.00 43 1017.7
20260510134531 53 170 2.0 6.0 0.00 0.00 0.00 44 1017.7
20260510134014 53 182 2.0 6.0 0.00 0.00 0.00 45 1017.7
20260510133517 52 161 1.0 6.0 0.00 0.00 0.00 46 1017.6
20260510133039 51 254 2.0 5.0 0.00 0.00 0.00 49 1017.6
20260510132512 51 169 2.0 5.0 0.00 0.00 0.00 53 1017.6
20260510132012 50 179 1.0 5.0 0.00 0.00 0.00 54 1017.6
20260510131535 49 187 2.0 6.0 0.00 0.00 0.00 58 1017.5
20260510131015 48 221 1.0 6.0 0.00 0.00 0.00 58 1017.4
20260510130515 48 262 2.0 5.0 0.00 0.00 0.00 61 1017.4
20260510130029 47 256 1.0 6.0 0.00 0.00 0.00 63 1017.3
20260510125516 46 207 2.0 6.0 0.00 0.00 0.00 64 1017.3
20260510125012 46 280 1.0 6.0 0.00 0.00 0.00 66 1017.2
20260510124530 45 257 3.0 6.0 0.00 0.00 0.00 67 1017.2
20260510124017 44 254 1.0 6.0 0.00 0.00 0.00 69 1017.2
20260510123513 43 252 1.0 5.0 0.00 0.00 0.00 71 1017.0
20260510123031 43 285 1.0 6.0 0.00 0.00 0.00 72 1017.1
20260510122514 42 286 0.0 6.0 0.00 0.00 0.00 72 1017.0
20260510122014 42 276 1.0 3.0 0.00 0.00 0.00 72 1017.0
20260510121531 42 309 0.0 6.0 0.00 0.00 0.00 74 1017.0
20260510121015 41 248 1.0 6.0 0.00 0.00 0.00 74 1016.9
20260510120515 40 263 1.0 6.0 0.00 0.00 0.00 76 1016.9
20260510120030 40 258 0.0 6.0 0.00 0.00 0.00 76 1016.7
20260510115512 40 254 0.0 4.0 0.00 0.00 0.00 77 1016.6
20260510115017 39 0 1.0 4.0 0.00 0.00 0.00 78 1016.7
20260510114550 38 245 0.0 4.0 0.00 0.00 0.00 80 1016.7
20260510114015 38 266 2.0 4.0 0.00 0.00 0.00 80 1016.5
20260510113519 37 0 1.0 4.0 0.00 0.00 0.00 82 1016.5
20260510113039 37 247 1.0 4.0 0.00 0.00 0.00 83 1016.5
20260510112514 36 250 2.0 3.0 0.00 0.00 0.00 84 1016.4
20260510112014 35 269 1.0 3.0 0.00 0.00 0.00 85 1016.3
20260510111533 35 267 1.0 3.0 0.00 0.00 0.00 85 1016.2
20260510111015 35 0 0.0 3.0 0.00 0.00 0.00 86 1016.2
20260510110517 34 252 0.0 3.0 0.00 0.00 0.00 85 1016.2
20260510110053 34 263 0.0 2.0 0.00 0.00 0.00 85 1016.2
20260510105514 34 0 1.0 2.0 0.00 0.00 0.00 85 1016.2
20260510105015 34 0 0.0 2.0 0.00 0.00 0.00 85 1016.2
20260510104532 34 0 0.0 0.0 0.00 0.00 0.00 84 1016.0
20260510104014 34 0 0.0 0.0 0.00 0.00 0.00 84 1016.0
20260510103515 34 0 0.0 0.0 0.00 0.00 0.00 84 1015.9
20260510103029 34 0 0.0 0.0 0.00 0.00 0.00 84 1015.8
20260510102514 34 0 0.0 0.0 0.00 0.00 0.00 83 1015.9
20260510102016 34 0 0.0 2.0 0.00 0.00 0.00 83 1015.9
20260510101530 35 0 0.0 2.0 0.00 0.00 0.00 82 1015.8
20260510101011 35 0 0.0 2.0 0.00 0.00 0.00 83 1015.8
20260510100515 35 0 0.0 2.0 0.00 0.00 0.00 83 1015.7
20260510100038 35 246 0.0 2.0 0.00 0.00 0.00 83 1015.6
20260510095515 35 246 0.0 2.0 0.00 0.00 0.00 83 1015.5
20260510095014 35 284 0.0 2.0 0.00 0.00 0.00 82 1015.5
20260510094535 35 0 0.0 2.0 0.00 0.00 0.00 83 1015.5
20260510094014 35 0 0.0 2.0 0.00 0.00 0.00 82 1015.4
20260510093521 35 0 0.0 1.0 0.00 0.00 0.00 83 1015.3
20260510093030 35 0 0.0 0.0 0.00 0.00 0.00 83 1015.2
20260510092514 35 0 0.0 0.0 0.00 0.00 0.00 82 1015.2
20260510092015 35 0 0.0 0.0 0.00 0.00 0.00 82 1015.0
20260510091532 35 0 0.0 0.0 0.00 0.00 0.00 82 1015.1
20260510091014 35 0 0.0 0.0 0.00 0.00 0.00 81 1015.1
20260510090515 35 0 0.0 0.0 0.00 0.00 0.00 81 1015.2
20260510090030 36 0 0.0 0.0 0.00 0.00 0.00 80 1015.0
20260510085518 36 0 0.0 0.0 0.00 0.00 0.00 79 1014.9
20260510085012 36 0 0.0 0.0 0.00 0.00 0.00 78 1014.9
20260510084529 36 0 0.0 0.0 0.00 0.00 0.00 77 1014.7
20260510084014 37 0 0.0 0.0 0.00 0.00 0.00 77 1014.7
20260510083512 37 0 0.0 0.0 0.00 0.00 0.00 77 1014.7
20260510083031 37 0 0.0 0.0 0.00 0.00 0.00 77 1014.7
20260510082511 37 0 0.0 0.0 0.00 0.00 0.00 76 1014.6
20260510082012 37 0 0.0 0.0 0.00 0.00 0.00 76 1014.5
20260510081531 37 0 0.0 0.0 0.00 0.00 0.00 76 1014.5
20260510081015 38 0 0.0 0.0 0.00 0.00 0.00 75 1014.4
20260510080513 38 0 0.0 0.0 0.00 0.00 0.00 75 1014.4
20260510080031 38 0 0.0 0.0 0.00 0.00 0.00 74 1014.3
20260510075617 38 0 0.0 0.0 0.00 0.00 0.00 74 1014.2
20260510075012 39 0 0.0 0.0 0.00 0.00 0.00 73 1014.1
20260510074536 39 0 0.0 0.0 0.00 0.00 0.00 73 1014.1
20260510074015 39 0 0.0 1.0 0.00 0.00 0.00 72 1014.0
20260510073515 39 0 0.0 1.0 0.00 0.00 0.00 72 1013.9
20260510073030 40 0 0.0 1.0 0.00 0.00 0.00 71 1013.8
20260510072517 40 0 0.0 1.0 0.00 0.00 0.00 71 1013.7
20260510072014 40 0 0.0 1.0 0.00 0.00 0.00 70 1013.7
20260510071529 40 0 0.0 2.0 0.00 0.00 0.00 69 1013.5
20260510071012 41 0 0.0 2.0 0.00 0.00 0.00 68 1013.4
20260510070514 41 0 0.0 2.0 0.00 0.00 0.00 68 1013.4
20260510070033 41 0 0.0 3.0 0.00 0.00 0.00 68 1013.3
20260510065511 41 0 0.0 3.0 0.00 0.00 0.00 67 1013.3
20260510065013 42 360 0.0 4.0 0.00 0.00 0.00 67 1013.3
20260510064530 42 0 0.0 4.0 0.00 0.00 0.00 67 1013.3
20260510064013 42 352 0.0 4.0 0.00 0.00 0.00 67 1013.3
20260510063513 42 0 1.0 4.0 0.00 0.00 0.00 66 1013.2
20260510063030 42 5 0.0 4.0 0.00 0.00 0.00 66 1013.3
20260510062515 43 0 0.0 3.0 0.00 0.00 0.00 65 1013.1
20260510062014 43 0 0.0 3.0 0.00 0.00 0.00 65 1013.1
20260510061532 43 0 0.0 5.0 0.00 0.00 0.00 64 1013.0
20260510061014 43 0 0.0 5.0 0.00 0.00 0.00 64 1013.1
20260510060515 43 30 2.0 5.0 0.00 0.00 0.00 64 1013.0
20260510060033 43 0 0.0 3.0 0.00 0.00 0.00 64 1012.9
20260510055514 44 17 1.0 4.0 0.00 0.00 0.00 64 1012.8
20260510055015 44 0 0.0 4.0 0.00 0.00 0.00 63 1012.9
20260510054533 44 54 1.0 4.0 0.00 0.00 0.00 63 1012.8
20260510054012 44 26 1.0 5.0 0.00 0.00 0.00 63 1012.9
20260510053513 44 13 1.0 5.0 0.00 0.00 0.00 63 1012.8
20260510053029 44 55 1.0 5.0 0.00 0.00 0.00 63 1012.7
20260510052514 44 0 1.0 5.0 0.00 0.00 0.00 62 1012.6
20260510052014 44 42 2.0 5.0 0.00 0.00 0.00 62 1012.6
20260510051528 45 41 1.0 5.0 0.00 0.00 0.00 62 1012.6
20260510051013 45 0 1.0 5.0 0.00 0.00 0.00 61 1012.6
20260510050513 45 0 1.0 6.0 0.00 0.00 0.00 61 1012.5
20260510050032 45 65 1.0 6.0 0.00 0.00 0.00 61 1012.5
20260510045514 45 52 2.0 5.0 0.00 0.00 0.00 61 1012.4
20260510045015 45 343 2.0 8.0 0.00 0.00 0.00 60 1012.4
20260510044530 46 25 3.0 8.0 0.00 0.00 0.00 60 1012.4
20260510044015 46 326 2.0 6.0 0.00 0.00 0.00 60 1012.4
20260510043512 46 36 2.0 10.0 0.00 0.00 0.00 60 1012.2
20260510043030 46 33 4.0 12.0 0.00 0.00 0.00 59 1012.2
20260510042515 46 22 5.0 12.0 0.00 0.00 0.00 58 1012.1
20260510042014 47 18 3.0 8.0 0.00 0.00 0.00 57 1012.0
20260510041544 47 44 3.0 12.0 0.00 0.00 0.00 56 1012.0
20260510041014 47 30 2.0 12.0 0.00 0.00 0.00 55 1011.8
20260510040514 48 42 3.0 12.0 0.00 0.00 0.00 53 1011.7
20260510040033 49 54 4.0 12.0 0.00 0.00 0.00 51 1011.5
20260510035515 50 26 5.0 16.0 0.00 0.00 0.00 49 1011.4
20260510035014 51 355 6.0 16.0 0.00 0.00 0.00 45 1011.4
20260510034530 51 32 9.0 16.0 0.00 0.00 0.00 43 1011.3
20260510034014 51 355 2.0 5.0 0.00 0.00 0.00 45 1010.8
20260510033513 51 0 1.0 5.0 0.00 0.00 0.00 44 1010.6
20260510033028 51 20 0.0 4.0 0.00 0.00 0.00 44 1010.4
20260510032514 51 348 1.0 5.0 0.00 0.00 0.00 44 1010.3
20260510032011 52 352 1.0 5.0 0.00 0.00 0.00 44 1010.3
20260510031534 52 344 1.0 5.0 0.00 0.00 0.00 44 1010.2
20260510031013 52 323 0.0 5.0 0.00 0.00 0.00 43 1010.2
20260510030512 53 0 0.0 6.0 0.00 0.00 0.00 44 1010.1
20260510030031 53 0 1.0 8.0 0.00 0.00 0.00 43 1010.1
20260510025510 53 0 1.0 8.0 0.00 0.00 0.00 43 1010.0
20260510025014 53 338 0.0 5.0 0.00 0.00 0.00 42 1009.9
20260510024531 54 0 0.0 5.0 0.00 0.00 0.00 42 1009.9
20260510024013 54 0 1.0 5.0 0.00 0.00 0.00 42 1009.8
20260510023514 54 311 1.0 8.0 0.00 0.00 0.00 42 1009.7
20260510023028 54 343 3.0 8.0 0.00 0.00 0.00 42 1009.6
20260510022518 54 355 1.0 5.0 0.00 0.00 0.00 42 1009.6
20260510022012 55 0 1.0 5.0 0.00 0.00 0.00 42 1009.6
20260510021536 55 329 1.0 7.0 0.00 0.00 0.00 42 1009.3
20260510021011 55 334 1.0 7.0 0.00 0.00 0.00 42 1009.3
20260510020514 56 331 2.0 11.0 0.00 0.00 0.00 42 1009.1
20260510020033 55 331 3.0 11.0 0.00 0.00 0.00 42 1008.9
20260510015513 55 80 4.0 9.0 0.00 0.00 0.00 42 1008.9
20260510015015 56 303 2.0 9.0 0.00 0.00 0.00 43 1008.6
20260510014533 56 355 3.0 8.0 0.00 0.00 0.00 43 1008.6
20260510014016 56 15 2.0 7.0 0.00 0.00 0.00 43 1008.5
20260510013519 56 360 1.0 5.0 0.00 0.00 0.00 43 1008.3
20260510013037 56 301 2.0 6.0 0.00 0.00 0.00 42 1008.1
20260510012515 56 296 2.0 6.0 0.00 0.00 0.00 43 1008.0
20260510012015 57 0 2.0 6.0 0.00 0.00 0.00 43 1007.9
20260510011530 57 325 1.0 6.0 0.00 0.00 0.00 42 1007.8
20260510011017 58 342 1.0 10.0 0.00 0.00 0.00 41 1007.6
20260510010515 58 352 2.0 10.0 0.00 0.00 0.00 41 1007.5
20260510010030 58 330 3.0 12.0 0.00 0.00 0.00 40 1007.4
20260510005516 58 17 3.0 12.0 0.00 0.00 0.00 40 1007.4
20260510005014 59 296 2.0 11.0 0.00 0.00 0.00 40 1007.4
20260510004532 59 228 2.0 11.0 0.00 0.00 0.00 41 1007.2
20260510004018 59 305 4.0 11.0 0.00 0.00 0.00 39 1007.2
20260510003514 59 5 4.0 11.0 0.00 0.00 0.00 40 1007.0
20260510003040 59 236 3.0 11.0 0.00 0.00 0.00 40 1007.0
20260510002516 60 317 2.0 11.0 0.00 0.00 0.00 41 1006.8
20260510002015 60 257 3.0 11.0 0.00 0.00 0.00 40 1006.7
20260510001539 60 333 3.0 16.0 0.00 0.00 0.00 41 1006.7
20260510001014 61 297 3.0 16.0 0.00 0.00 0.00 40 1006.6
20260510000517 61 18 3.0 16.0 0.00 0.00 0.00 39 1006.5
20260510000030 61 355 3.0 16.0 0.00 0.00 0.00 39 1006.5
20260509235514 62 355 3.0 16.0 0.00 0.00 0.00 40 1006.5
20260509235016 63 250 3.0 12.0 0.00 0.00 0.00 38 1006.3
20260509234537 63 304 3.0 11.0 0.00 0.00 0.00 38 1006.3
20260509234018 63 355 3.0 14.0 0.00 0.00 0.00 39 1006.3
20260509233516 63 217 4.0 14.0 0.00 0.00 0.00 37 1006.2
20260509233032 64 313 4.0 14.0 0.00 0.00 0.00 39 1006.3
20260509232516 64 197 3.0 9.0 0.00 0.00 0.00 40 1006.2
20260509232014 63 251 3.0 15.0 0.00 0.00 0.00 40 1006.2
20260509231531 63 275 5.0 15.0 0.00 0.00 0.00 39 1006.1
20260509231016 64 281 4.0 14.0 0.00 0.00 0.00 39 1006.1
20260509230514 64 308 7.0 14.0 0.00 0.00 0.00 39 1005.9
20260509230032 65 326 5.0 14.0 0.00 0.00 0.00 38 1005.8
20260509225516 65 312 3.0 14.0 0.00 0.00 0.00 39 1005.7
20260509225016 65 360 5.0 15.0 0.00 0.00 0.00 41 1005.6
20260509224532 65 346 4.0 15.0 0.00 0.00 0.00 40 1005.6
20260509224012 65 273 6.0 15.0 0.00 0.00 0.00 38 1005.6
20260509223511 65 350 4.0 16.0 0.00 0.00 0.00 38 1005.6
20260509223030 65 349 4.0 16.0 0.00 0.00 0.00 40 1005.5
20260509222512 65 213 3.0 19.0 0.00 0.00 0.00 39 1005.3
20260509222017 65 306 6.0 19.0 0.00 0.00 0.00 37 1005.2
20260509221530 65 298 5.0 13.0 0.00 0.00 0.00 40 1005.2
20260509221011 64 297 4.0 13.0 0.00 0.00 0.00 39 1005.1
20260509220512 64 304 5.0 13.0 0.00 0.00 0.00 40 1005.1
20260509220034 63 320 4.0 15.0 0.00 0.00 0.00 40 1004.9
20260509215513 64 43 7.0 15.0 0.00 0.00 0.00 41 1004.9
20260509215010 65 284 5.0 18.0 0.00 0.00 0.00 38 1004.9
20260509214537 66 248 6.0 18.0 0.00 0.00 0.00 37 1004.7
20260509214015 67 317 6.0 17.0 0.00 0.00 0.00 42 1004.6
20260509213515 67 304 5.0 17.0 0.00 0.00 0.00 38 1004.6
20260509213030 67 30 5.0 19.0 0.00 0.00 0.00 38 1004.5
20260509212513 67 309 5.0 19.0 0.00 0.00 0.00 37 1004.5
20260509212011 67 272 7.0 19.0 0.00 0.00 0.00 37 1004.4
20260509211528 67 301 5.0 16.0 0.00 0.00 0.00 37 1004.3
20260509211010 68 332 7.0 16.0 0.00 0.00 0.00 39 1004.2
20260509210511 68 279 6.0 16.0 0.00 0.00 0.00 37 1004.2
20260509210033 68 263 8.0 16.0 0.00 0.00 0.00 36 1004.4
20260509205513 68 315 6.0 17.0 0.00 0.00 0.00 38 1004.2
20260509205013 68 316 5.0 17.0 0.00 0.00 0.00 36 1004.0
20260509204540 68 218 7.0 21.0 0.00 0.00 0.00 37 1004.0
20260509204010 68 245 6.0 22.0 0.00 0.00 0.00 38 1003.9
20260509203514 68 318 8.0 22.0 0.00 0.00 0.00 38 1004.0
20260509203033 68 316 7.0 17.0 0.00 0.00 0.00 40 1003.8
20260509202511 68 25 5.0 20.0 0.00 0.00 0.00 41 1003.8
20260509202011 68 258 7.0 20.0 0.00 0.00 0.00 41 1003.6
20260509201528 68 360 9.0 19.0 0.00 0.00 0.00 41 1003.7
20260509201013 69 360 7.0 19.0 0.00 0.00 0.00 42 1003.5
20260509200515 69 259 9.0 18.0 0.00 0.00 0.00 37 1003.3
20260509200038 69 312 7.0 22.0 0.00 0.00 0.00 38 1003.2
20260509195511 69 316 7.0 22.0 0.00 0.00 0.00 39 1003.0
20260509195017 69 337 7.0 20.0 0.00 0.00 0.00 39 1003.0
20260509194539 68 287 5.0 23.0 0.00 0.00 0.00 40 1002.7
20260509194013 67 275 10.0 23.0 0.00 0.00 0.00 38 1002.6
20260509193516 66 275 7.0 17.0 0.00 0.00 0.00 38 1002.6
20260509193038 66 305 6.0 17.0 0.00 0.00 0.00 39 1002.5
20260509192516 67 283 6.0 18.0 0.00 0.00 0.00 39 1002.5
20260509192014 67 264 7.0 18.0 0.00 0.00 0.00 38 1002.5
20260509191529 68 306 7.0 18.0 0.00 0.00 0.00 36 1002.4
20260509191015 69 277 7.0 16.0 0.00 0.00 0.00 35 1002.3
20260509190516 69 325 7.0 26.0 0.00 0.00 0.00 37 1002.3
20260509190032 69 224 8.0 26.0 0.00 0.00 0.00 36 1002.3
20260509185519 69 233 14.0 26.0 0.00 0.00 0.00 36 1002.3
20260509185018 69 262 9.0 30.0 0.00 0.00 0.00 35 1002.2
20260509184535 69 292 12.0 30.0 0.00 0.00 0.00 37 1002.4
20260509184015 69 252 13.0 30.0 0.00 0.00 0.00 37 1002.4
20260509183515 69 261 11.0 23.0 0.00 0.00 0.00 37 1002.2
20260509183031 68 234 11.0 20.0 0.00 0.00 0.00 38 1002.2
20260509182516 68 302 6.0 22.0 0.00 0.00 0.00 38 1002.2
20260509182015 68 259 8.0 22.0 0.00 0.00 0.00 39 1002.3
20260509181529 67 261 6.0 24.0 0.00 0.00 0.00 38 1002.1
20260509181015 66 244 9.0 24.0 0.00 0.00 0.00 37 1002.2
20260509180515 67 210 9.0 21.0 0.00 0.00 0.00 35 1002.2
20260509180033 67 219 5.0 27.0 0.00 0.00 0.00 37 1002.2
20260509175515 68 267 8.0 27.0 0.00 0.00 0.00 36 1002.2
20260509175016 69 238 10.0 21.0 0.00 0.00 0.00 34 1002.3
20260509174530 68 225 9.0 20.0 0.00 0.00 0.00 35 1002.4
20260509174015 68 267 8.0 24.0 0.00 0.00 0.00 36 1002.2
20260509173516 67 238 6.0 24.0 0.00 0.00 0.00 40 1002.3
20260509173035 67 286 8.0 18.0 0.00 0.00 0.00 36 1002.2